XBBAM MMGL-MMMY

Flight info

Callsign XBBAM
Flight time N/A
Altitude 37000
Route OTOKI1B OTOKI J42 ZCL UT5 SLW SLW1B
Aircraft B738/M-SDE2E3FGHIRWXY/LB1

Departure

Time N/A
Airport Guadalajara International Airport (MMGL)

Arrival

Time 2026-05-03 22:00
Airport Monterrey International Airport (MMMY)
Time Latitude Longitude Altitude Speed Heading
2026-05-03 21:54 25.88520 -100.30127 5287 ft 165 kts 119°
2026-05-03 21:54 25.87937 -100.29018 4894 ft 170 kts 119°
2026-05-03 21:54 25.87314 -100.27888 4482 ft 174 kts 120°
2026-05-03 21:55 25.86681 -100.26755 4034 ft 172 kts 120°
2026-05-03 21:55 25.86081 -100.25665 3728 ft 155 kts 120°
2026-05-03 21:55 25.85554 -100.24701 3630 ft 141 kts 120°
2026-05-03 21:55 25.85039 -100.23757 3619 ft 145 kts 120°
2026-05-03 21:56 25.84510 -100.22795 3468 ft 143 kts 119°
2026-05-03 21:56 25.84000 -100.21869 3329 ft 143 kts 120°
2026-05-03 21:56 25.83488 -100.20935 3219 ft 142 kts 119°
2026-05-03 21:56 25.82973 -100.19994 3007 ft 144 kts 119°
2026-05-03 21:57 25.82449 -100.19042 2794 ft 141 kts 120°
2026-05-03 21:57 25.81948 -100.18129 2593 ft 141 kts 121°
2026-05-03 21:57 25.81438 -100.17197 2409 ft 141 kts 122°
2026-05-03 21:57 25.80942 -100.16260 2201 ft 141 kts 120°
2026-05-03 21:58 25.80444 -100.15324 2029 ft 138 kts 123°
2026-05-03 21:58 25.79929 -100.14421 1864 ft 141 kts 123°
2026-05-03 21:58 25.79419 -100.13466 1664 ft 143 kts 122°
2026-05-03 21:58 25.78892 -100.12553 1475 ft 140 kts 126°
2026-05-03 21:59 25.78375 -100.11648 1309 ft 137 kts 122°
2026-05-03 21:59 25.77911 -100.10780 1269 ft 122 kts 125°
2026-05-03 21:59 25.77530 -100.10106 1256 ft 82 kts 122°
2026-05-03 21:59 25.77293 -100.09671 1250 ft 52 kts 123°
2026-05-03 22:00 25.77131 -100.09376 1245 ft 31 kts 121°
2026-05-03 22:00 25.77045 -100.09229 1242 ft 20 kts 135°
2026-05-03 22:00 25.76919 -100.09235 1242 ft 18 kts 210°
2026-05-03 22:00 25.76890 -100.09348 1244 ft 16 kts 297°
2026-05-03 22:01 25.76936 -100.09456 1246 ft 14 kts 292°
2026-05-03 22:01 25.76975 -100.09539 1248 ft 8 kts 297°
2026-05-03 22:01 25.77000 -100.09571 1248 ft 6 kts 321°
2026-05-03 22:01 25.77053 -100.09642 1250 ft 16 kts 296°
2026-05-03 22:02 25.77124 -100.09785 1250 ft 25 kts 302°
2026-05-03 22:02 25.77227 -100.09968 1253 ft 29 kts 303°
2026-05-03 22:02 25.77343 -100.10171 1257 ft 32 kts 301°
2026-05-03 22:02 25.77467 -100.10394 1261 ft 35 kts 302°
2026-05-03 22:03 25.77588 -100.10641 1266 ft 36 kts 301°
2026-05-03 22:03 25.77713 -100.10835 1270 ft 35 kts 299°
2026-05-03 22:03 25.77835 -100.11066 1274 ft 27 kts 301°
2026-05-03 22:03 25.77907 -100.11198 1278 ft 18 kts 301°
2026-05-03 22:04 25.77917 -100.11303 1282 ft 13 kts 220°
2026-05-03 22:04 25.77893 -100.11320 1282 ft 1 kts 214°
2026-05-03 22:04 25.77890 -100.11323 1282 ft 0 kts 212°
2026-05-03 22:04 25.77881 -100.11329 1282 ft 0 kts 211°